Total_Precipitation_Accumulation
0.09 0.11 0.15 0.17 0.17 0.16 0.18 0.22 0.22 0.25 0.29 0.32 0.39 0.55 0.74 0.68 0.69 0.61 0.43 0.44 0.58 0.75 0.84 0.78 0.70 0.58 0.49 0.40 0.35 0.43 0.41 0.26 0.08 0.06 0.05 0.01 0.00 0.00 0.00 0.00 0.01 0.01 0.02
0.05 0.05 0.08 0.10 0.12 0.13 0.14 0.18 0.25 0.32 0.37 0.43 0.55 0.64 0.72 0.61 0.63 0.65 0.63 0.57 0.56 0.70 0.81 0.93 0.88 0.73 0.69 0.73 0.76 0.90 0.93 0.63 0.29 0.24 0.24 0.14 0.08 0.02 0.01 0.01 0.01 0.01 0.03
0.03 0.04 0.04 0.06 0.07 0.08 0.09 0.12 0.18 0.28 0.39 0.53 0.74 0.91 1.01 1.03 1.04 0.91 0.88 0.80 0.69 0.67 0.69 0.85 0.86 0.75 0.72 0.82 0.92 1.14 1.35 1.10 0.71 0.48 0.49 0.42 0.37 0.18 0.04 0.01 0.02 0.02 0.01
0.06 0.04 0.04 0.05 0.05 0.06 0.06 0.10 0.18 0.32 0.51 0.71 0.95 1.18 1.35 1.34 1.18 1.09 1.00 0.80 0.71 0.67 0.65 0.69 0.75 0.78 0.74 0.86 0.90 0.96 1.29 1.39 1.11 0.85 0.60 0.44 0.38 0.31 0.20 0.06 0.02 0.04 0.02
0.11 0.09 0.08 0.10 0.10 0.10 0.13 0.20 0.38 0.62 0.85 1.06 1.29 1.56 1.56 1.43 1.28 1.17 1.06 0.97 0.87 0.77 0.70 0.73 0.68 0.65 0.67 0.76 0.95 1.08 1.28 1.39 1.26 1.11 0.94 0.78 0.60 0.35 0.32 0.28 0.10 0.03 0.02
0.18 0.23 0.27 0.32 0.35 0.39 0.52 0.72 0.95 1.11 1.18 1.30 1.41 1.54 1.54 1.55 1.46 1.25 1.10 1.02 0.96 0.91 0.87 0.81 0.65 0.55 0.57 0.65 0.80 0.97 1.15 1.34 1.37 1.16 0.96 0.88 0.78 0.67 0.53 0.37 0.26 0.13 0.03
0.28 0.40 0.54 0.67 0.78 0.89 0.99 1.12 1.29 1.39 1.32 1.29 1.31 1.35 1.36 1.35 1.34 1.26 1.11 0.99 0.93 0.90 0.85 0.81 0.79 0.70 0.62 0.64 0.70 0.81 0.84 0.99 1.22 1.12 0.97 0.88 0.75 0.71 0.70 0.56 0.40 0.31 0.12
0.44 0.54 0.63 0.75 0.89 0.99 1.02 1.03 1.12 1.19 1.17 1.13 1.11 1.08 1.08 1.07 1.00 0.91 0.88 0.88 0.88 0.84 0.74 0.65 0.65 0.68 0.67 0.58 0.54 0.49 0.51 0.64 0.83 0.90 0.99 1.03 0.87 0.72 0.63 0.59 0.54 0.42 0.34
0.69 0.80 0.88 1.00 1.02 1.03 1.03 0.94 0.93 0.97 0.98 0.93 0.87 0.84 0.83 0.82 0.77 0.72 0.72 0.68 0.65 0.58 0.52 0.50 0.46 0.42 0.38 0.32 0.32 0.33 0.37 0.40 0.56 0.71 0.81 0.94 1.01 0.91 0.71 0.64 0.61 0.55 0.50
0.93 1.17 1.35 1.43 1.25 0.99 0.86 0.82 0.77 0.77 0.81 0.83 0.80 0.76 0.72 0.67 0.63 0.61 0.62 0.57 0.48 0.40 0.34 0.29 0.24 0.20 0.17 0.16 0.20 0.26 0.32 0.34 0.40 0.54 0.63 0.71 0.78 0.93 0.89 0.75 0.72 0.65 0.55
1.09 1.21 1.36 1.44 1.24 0.90 0.69 0.68 0.72 0.72 0.70 0.72 0.72 0.69 0.64 0.56 0.51 0.51 0.53 0.51 0.45 0.38 0.30 0.24 0.22 0.22 0.18 0.15 0.17 0.17 0.16 0.18 0.22 0.28 0.37 0.50 0.73 0.96 0.98 0.93 0.83 0.75 0.67
1.01 0.99 1.02 1.04 1.01 0.82 0.65 0.61 0.66 0.68 0.68 0.72 0.72 0.68 0.59 0.52 0.50 0.45 0.42 0.37 0.31 0.28 0.25 0.24 0.20 0.18 0.20 0.18 0.19 0.18 0.15 0.15 0.17 0.18 0.22 0.34 0.60 0.88 1.04 1.11 1.06 0.93 0.83
1.00 0.97 0.90 0.80 0.76 0.71 0.66 0.64 0.74 0.81 0.85 0.85 0.73 0.61 0.55 0.52 0.51 0.42 0.36 0.33 0.27 0.24 0.23 0.28 0.27 0.24 0.23 0.20 0.20 0.21 0.20 0.18 0.21 0.24 0.23 0.24 0.38 0.61 0.84 0.98 1.04 1.01 0.97
0.72 0.67 0.63 0.57 0.53 0.55 0.59 0.63 0.74 0.83 0.93 1.02 0.90 0.74 0.62 0.55 0.48 0.41 0.39 0.37 0.33 0.34 0.35 0.40 0.42 0.36 0.30 0.27 0.28 0.25 0.20 0.18 0.18 0.20 0.22 0.24 0.26 0.36 0.52 0.68 0.82 0.97 1.09
0.36 0.35 0.35 0.33 0.32 0.31 0.32 0.40 0.52 0.68 0.85 1.02 1.01 0.83 0.70 0.64 0.56 0.52 0.51 0.49 0.51 0.47 0.45 0.48 0.54 0.60 0.55 0.51 0.52 0.38 0.27 0.22 0.18 0.16 0.13 0.14 0.17 0.21 0.30 0.40 0.58 0.87 1.08
0.24 0.23 0.22 0.20 0.15 0.13 0.15 0.17 0.25 0.41 0.58 0.73 0.79 0.75 0.66 0.54 0.48 0.50 0.51 0.48 0.46 0.41 0.40 0.42 0.47 0.53 0.55 0.70 0.60 0.36 0.23 0.19 0.19 0.19 0.14 0.12 0.10 0.13 0.18 0.22 0.29 0.49 0.67
0.19 0.18 0.19 0.18 0.17 0.15 0.14 0.13 0.17 0.24 0.34 0.47 0.56 0.54 0.49 0.42 0.36 0.37 0.39 0.37 0.33 0.34 0.33 0.33 0.33 0.36 0.45 0.46 0.29 0.22 0.18 0.18 0.19 0.20 0.19 0.15 0.11 0.10 0.12 0.16 0.21 0.25 0.31
0.18 0.16 0.16 0.15 0.13 0.12 0.11 0.11 0.14 0.17 0.18 0.22 0.26 0.27 0.27 0.26 0.28 0.30 0.30 0.30 0.27 0.26 0.26 0.33 0.39 0.39 0.34 0.31 0.21 0.17 0.17 0.24 0.23 0.18 0.15 0.16 0.16 0.18 0.20 0.15 0.16 0.22 0.27
0.09 0.08 0.07 0.06 0.05 0.04 0.04 0.04 0.05 0.05 0.05 0.06 0.08 0.10 0.12 0.13 0.17 0.17 0.20 0.29 0.32 0.32 0.35 0.45 0.51 0.44 0.32 0.29 0.26 0.23 0.23 0.29 0.32 0.24 0.19 0.18 0.22 0.36 0.29 0.16 0.18 0.25 0.33
0.02 0.02 0.01 0.01 0.01 0.00 0.00 0.00 0.00 0.00 0.00 0.00 0.00 0.01 0.01 0.02 0.05 0.08 0.10 0.16 0.22 0.29 0.35 0.36 0.33 0.32 0.36 0.36 0.28 0.29 0.32 0.35 0.40 0.34 0.28 0.36 0.33 0.38 0.28 0.17 0.23 0.31 0.33
0.00 0.00 0.00 0.00 0.00 0.00 0.00 0.00 0.00 0.00 0.00 0.00 0.00 0.00 0.00 0.00 0.01 0.01 0.02 0.04 0.09 0.12 0.13 0.14 0.16 0.22 0.38 0.39 0.32 0.35 0.31 0.32 0.36 0.37 0.37 0.33 0.36 0.27 0.22 0.16 0.17 0.28 0.26
0.00 0.00 0.00 0.00 0.00 0.00 0.00 0.00 0.00 0.00 0.00 0.00 0.00 0.00 0.00 0.00 0.00 0.01 0.01 0.01 0.02 0.03 0.05 0.07 0.10 0.15 0.22 0.26 0.24 0.20 0.19 0.22 0.30 0.35 0.35 0.32 0.41 0.29 0.16 0.10 0.12 0.17 0.15
0.00 0.00 0.00 0.00 0.00 0.00 0.00 0.00 0.00 0.00 0.00 0.00 0.00 0.00 0.00 0.01 0.00 0.01 0.01 0.01 0.02 0.03 0.04 0.07 0.10 0.14 0.19 0.18 0.15 0.11 0.11 0.16 0.24 0.29 0.36 0.39 0.34 0.22 0.14 0.14 0.15 0.15 0.16
0.00 0.00 0.00 0.00 0.00 0.00 0.00 0.00 0.00 0.00 0.00 0.00 0.00 0.00 0.01 0.01 0.01 0.01 0.01 0.02 0.02 0.04 0.06 0.11 0.15 0.17 0.19 0.19 0.18 0.19 0.18 0.20 0.21 0.25 0.31 0.32 0.24 0.19 0.18 0.18 0.17 0.18 0.21
0.00 0.00 0.00 0.00 0.00 0.00 0.00 0.00 0.00 0.00 0.00 0.00 0.00 0.00 0.01 0.01 0.01 0.01 0.01 0.01 0.02 0.04 0.09 0.11 0.14 0.15 0.14 0.14 0.15 0.23 0.29 0.37 0.43 0.43 0.36 0.34 0.33 0.29 0.23 0.18 0.17 0.18 0.18
0.00 0.00 0.00 0.00 0.00 0.00 0.00 0.00 0.00 0.00 0.00 0.00 0.00 0.00 0.01 0.01 0.01 0.02 0.01 0.01 0.01 0.01 0.03 0.04 0.06 0.11 0.12 0.08 0.07 0.14 0.27 0.41 0.56 0.73 0.71 0.68 0.64 0.57 0.42 0.22 0.13 0.11 0.12